This is the latest recevied weather packets stored in our database for station/object NE8U. If no packets are shown the sender has not sent any weather packets the latest 10 day(s).
| Time | Temp. | Humidity | Pressure | Rain* | Wind** | Luminosity | Snow |
|---|---|---|---|---|---|---|---|
| 1777818983 | 23.89° C | 37% | 1015.6 hPa | 0 mm | - | 138 W/m² | - |
| 1777818680 | 23.89° C | 37% | 1015.3 hPa | 0 mm | - | 132 W/m² | - |
| 1777818377 | 23.89° C | 37% | 1015.4 hPa | 0 mm | - | 134 W/m² | - |
| 1777818073 | 23.33° C | 38% | 1015.3 hPa | 0 mm | - | 130 W/m² | - |
| 1777817770 | 23.33° C | 38% | 1015.3 hPa | 0 mm | - | 110 W/m² | - |
| 1777817468 | 23.33° C | 38% | 1015.2 hPa | 0 mm | - | 112 W/m² | - |
| 1777817163 | 22.78° C | 39% | 1015.1 hPa | 0 mm | - | 91 W/m² | - |
| 1777816861 | 22.78° C | 38% | 1015.3 hPa | 0 mm | - | 79 W/m² | - |
| 1777816558 | 22.78° C | 39% | 1015.2 hPa | 0 mm | - | 88 W/m² | - |
| 1777816255 | 22.78° C | 39% | 1015.2 hPa | 0 mm | - | 72 W/m² | - |
| 1777815952 | 22.78° C | 39% | 1015 hPa | 0 mm | - | 73 W/m² | - |
| 1777815650 | 22.78° C | 39% | 1015 hPa | 0 mm | - | 72 W/m² | - |
| 1777815347 | 22.22° C | 39% | 1014.9 hPa | 0 mm | - | 69 W/m² | - |
| 1777815044 | 22.22° C | 39% | 1014.9 hPa | 0 mm | - | 60 W/m² | - |
| 1777814740 | 22.22° C | 39% | 1014.9 hPa | 0 mm | - | 43 W/m² | - |
| 1777814437 | 22.22° C | 39% | 1014.9 hPa | 0 mm | - | 32 W/m² | - |
| 1777814134 | 22.22° C | 39% | 1014.4 hPa | 0 mm | - | 29 W/m² | - |
| 1777813831 | 22.22° C | 39% | 1014.6 hPa | 0 mm | - | 29 W/m² | - |
| 1777813528 | 22.22° C | 39% | 1014.6 hPa | 0 mm | - | 23 W/m² | - |
| 1777813226 | 22.22° C | 39% | 1014.5 hPa | 0 mm | - | 14 W/m² | - |
| 1777812923 | 22.22° C | 39% | 1014.4 hPa | 0 mm | - | 7 W/m² | - |
| 1777812621 | 22.22° C | 39% | 1014.3 hPa | 0 mm | - | 4 W/m² | - |
| 1777812317 | 22.22° C | 38% | 1014.3 hPa | 0 mm | - | 3 W/m² | - |
| 1777812015 | 22.78° C | 38% | 1014.4 hPa | 0 mm | - | 1 W/m² | - |
| 1777811714 | 22.78° C | 38% | 1014.3 hPa | 0 mm | - | 0 W/m² | - |
* Rain latest hour (hover to see other rain measurements)
** Current wind speed in m/s (hover to see current wind gust speed)